Wind_Speed
14 14 15 16 17 17 18 19 20 21 22 22 22 21 21 22 23 23 24 26 27 28 30 30 30 31 31 30 28 27 26 25 25 25 25 24 24 24 25 26 27 28 28 28
14 15 16 16 17 17 18 18 18 20 21 20 21 20 20 21 22 23 23 24 26 27 29 30 31 31 31 30 29 28 27 26 26 26 25 25 26 27 27 28 28 28 28 29
13 15 16 16 16 17 17 17 16 17 19 19 19 19 20 20 21 21 23 24 25 26 28 30 31 31 31 31 30 29 28 27 27 28 28 27 27 28 28 28 29 28 28 29
13 14 15 15 15 16 15 16 15 16 16 16 17 16 17 18 19 20 21 23 25 25 27 28 30 30 31 31 30 29 29 29 29 29 30 28 27 27 27 28 29 29 29 30
13 14 15 15 15 15 14 15 15 15 15 15 15 15 16 16 17 19 20 22 23 25 27 28 29 30 30 31 30 30 30 31 31 30 30 29 28 28 27 27 28 30 30 30
13 14 14 15 15 14 13 14 14 14 14 14 14 15 15 16 16 17 19 20 22 23 25 27 28 29 29 30 30 30 31 31 31 30 30 30 30 29 28 28 28 29 31 32
12 14 14 14 14 13 13 12 12 12 12 13 15 15 16 16 15 16 18 19 21 22 23 24 26 28 29 29 30 30 31 31 31 31 30 31 31 30 29 28 28 28 29 31
10 12 14 13 12 13 12 11 11 12 12 12 15 15 15 14 15 15 16 18 20 22 23 23 24 25 27 28 29 30 30 31 31 31 30 30 29 28 27 27 27 26 26 28
10 11 13 13 12 12 11 11 12 13 12 12 13 14 14 14 15 15 15 16 18 18 20 23 24 25 26 27 28 28 29 30 31 31 31 30 27 27 27 26 26 26 27 27
10 11 12 11 11 11 11 12 12 10 10 11 13 14 13 13 14 15 15 16 17 18 18 20 23 26 26 26 27 28 28 29 30 31 30 29 28 28 27 27 27 26 25 25
10 11 11 11 10 11 11 10 10 9 10 11 12 13 13 13 13 14 15 15 15 17 18 19 21 23 25 26 27 28 28 28 28 29 29 29 28 28 27 26 26 26 26 27
9 9 9 9 9 9 9 9 9 10 11 12 12 13 13 13 12 13 13 13 14 16 17 18 19 21 23 24 26 27 27 27 27 27 27 26 27 27 27 27 26 25 26 27
8 7 7 8 9 8 8 8 9 9 11 11 11 13 12 12 12 12 12 12 13 14 15 16 18 20 21 22 23 24 25 25 25 26 26 26 26 26 27 27 27 26 26 27
7 6 6 6 8 8 8 8 9 9 10 11 11 12 12 13 12 12 13 13 14 14 15 15 16 19 20 21 22 23 23 24 25 24 24 24 24 24 25 25 25 26 26 26
7 6 6 6 7 8 8 8 9 9 10 11 11 12 13 13 13 13 13 14 15 15 15 15 16 18 20 20 21 21 21 23 23 23 24 24 24 24 24 24 25 25 25 26
6 6 6 6 7 7 8 8 9 9 10 11 12 13 13 13 13 14 14 14 14 14 14 14 15 16 17 18 19 20 20 21 21 22 22 22 22 22 23 24 24 24 24 24
6 6 6 6 6 7 7 8 9 10 10 11 11 12 13 13 13 13 13 13 13 13 13 13 14 14 15 16 17 18 18 19 20 20 21 21 22 22 22 22 23 23 24 24
6 6 5 5 6 7 8 9 9 9 10 11 12 12 13 13 13 13 13 13 12 13 14 13 13 14 14 15 15 17 17 18 18 18 19 20 21 21 21 21 22 23 24 24
6 5 5 5 7 8 9 9 9 10 10 11 12 12 12 12 12 12 13 13 13 12 12 12 12 12 13 14 14 15 15 15 17 17 18 18 19 19 20 21 21 22 23 24
6 5 5 5 6 8 9 9 9 10 10 11 11 11 11 11 11 12 12 11 11 11 11 11 11 11 12 12 12 14 14 14 14 15 16 17 18 19 20 20 20 21 22 22
6 5 5 5 6 7 8 9 10 10 11 11 11 11 11 11 11 11 11 10 9 9 10 10 10 10 10 10 10 11 12 12 12 13 14 15 16 17 18 18 19 20 20 21
6 5 5 5 6 7 8 9 10 10 11 11 11 11 11 11 10 10 10 9 8 8 9 9 9 10 10 10 10 10 10 10 11 11 11 12 14 15 15 16 17 17 18 19
6 5 4 5 5 6 7 9 9 10 10 11 11 11 11 10 9 9 9 8 7 7 7 8 8 8 9 9 9 9 10 10 10 10 10 11 11 11 12 13 13 14 15 16
5 4 4 4 4 6 7 8 9 10 10 11 11 11 11 10 9 8 8 8 7 6 7 7 7 8 8 8 8 8 8 8 9 9 9 10 11 11 11 12 12 12 11 12
6 4 3 3 4 5 7 8 9 10 10 11 11 12 11 10 8 8 7 7 6 6 6 5 6 6 6 7 6 6 7 7 7 7 8 8 9 9 9 9 9 9 9 9
6 4 2 2 3 5 6 8 9 9 10 11 11 12 11 10 8 8 7 7 6 6 6 6 6 6 6 6 6 5 5 6 6 6 7 7 8 8 8 7 7 7 7 7
Wind_Direction
278 282 284 284 283 283 284 282 281 279 276 272 269 267 264 258 252 248 245 241 239 238 237 236 236 238 241 243 246 249 249 251 253 252 252 255 255 255 254 253 252 252 251 251
281 283 284 286 286 287 287 285 281 279 278 274 270 268 263 257 252 248 245 242 240 238 236 235 236 238 240 242 244 248 251 252 257 258 257 258 258 257 255 255 254 253 251 250
277 282 286 288 290 291 291 287 281 280 280 278 275 270 264 258 253 247 244 242 242 241 239 236 237 238 240 243 247 250 252 253 257 258 259 260 260 258 256 256 256 254 253 251
277 282 287 292 291 291 290 287 285 283 282 283 280 276 268 261 253 248 246 244 242 241 240 238 237 239 240 243 247 250 253 255 257 258 259 262 264 263 261 260 258 257 256 254
280 285 288 289 288 288 282 282 284 285 283 279 279 275 268 262 254 248 244 244 242 241 239 237 237 238 239 242 246 249 252 255 257 259 260 262 266 267 266 265 262 258 256 255
282 288 290 288 287 285 283 284 287 287 284 279 278 273 270 264 257 250 245 243 243 245 242 239 238 238 239 242 245 249 251 256 258 259 259 261 264 266 267 268 265 261 258 255
292 294 294 293 289 287 286 287 290 288 283 281 277 272 266 264 257 253 246 244 247 246 243 241 241 238 239 243 247 249 252 256 257 258 258 261 264 266 266 266 262 261 258 254
288 291 294 296 290 285 284 280 277 278 275 274 278 273 272 266 258 254 249 248 249 248 243 242 243 241 242 246 249 251 252 254 256 259 260 260 260 262 263 264 264 263 259 254
283 283 290 292 289 284 282 284 281 281 283 280 280 280 277 272 263 258 255 254 252 252 244 241 243 244 246 248 251 253 254 255 257 259 259 258 258 260 263 263 262 262 261 258
288 289 290 293 293 287 282 283 285 285 285 283 286 287 283 276 270 262 261 259 255 254 251 246 245 244 247 249 251 253 255 257 258 257 256 257 258 260 261 260 259 261 261 258
294 293 293 295 294 291 288 283 284 282 276 284 289 289 289 277 270 264 261 259 257 255 254 251 249 248 248 250 252 254 254 256 257 257 256 257 259 259 259 260 259 259 261 260
296 292 291 296 297 294 287 281 282 283 284 285 288 288 288 282 275 270 267 261 259 257 254 252 252 251 250 251 252 252 254 255 258 258 256 257 258 259 260 259 258 256 257 258
294 296 300 307 306 300 291 285 286 287 286 288 290 292 288 290 283 275 270 268 265 263 257 257 256 254 253 254 255 256 254 254 255 256 256 258 260 259 258 257 255 256 257 260
286 292 292 287 288 295 293 290 291 295 294 294 292 290 291 290 287 280 274 270 269 267 266 265 261 259 256 256 257 257 254 255 255 256 257 257 258 257 257 255 254 255 256 259
282 287 292 292 291 291 294 297 298 298 296 293 293 293 294 291 287 283 279 274 271 270 270 267 268 266 261 260 257 256 257 257 256 255 255 255 255 256 257 258 257 257 257 259
275 282 291 297 298 297 301 304 303 302 300 296 295 296 296 294 290 287 286 283 278 277 275 273 271 268 263 261 261 259 258 257 257 257 256 255 255 255 257 256 258 259 262 263
269 278 288 296 303 310 311 310 309 308 307 303 300 300 300 300 296 293 291 289 282 280 279 277 273 270 267 266 263 263 262 261 259 258 260 260 259 259 257 258 259 262 265 267
267 273 283 295 307 308 310 315 314 312 312 310 308 305 302 301 298 296 293 289 283 282 281 279 276 272 270 270 269 269 268 265 261 260 260 260 259 258 259 260 262 264 265 267
263 271 282 297 307 311 314 318 318 316 316 315 313 309 307 303 298 296 295 291 286 285 282 276 273 273 271 272 274 272 271 268 266 263 260 259 261 261 262 264 265 264 265 268
261 268 281 297 306 313 319 323 324 323 323 323 323 318 314 309 303 304 299 293 292 289 287 284 276 276 277 277 276 276 274 272 267 265 263 263 264 264 265 266 266 266 267 269
258 267 280 293 305 314 324 328 330 329 327 328 327 324 319 313 309 309 305 300 299 292 291 288 286 286 287 287 283 280 279 280 274 270 267 265 267 268 268 267 267 268 268 270
249 261 272 290 307 314 327 331 333 333 332 332 331 328 323 317 311 313 312 309 304 300 297 294 291 289 292 292 289 288 285 284 281 277 274 272 273 271 269 268 268 268 269 273
242 250 265 287 303 317 329 335 338 338 337 337 337 336 333 328 320 318 318 317 309 303 305 302 300 300 300 297 296 296 294 291 288 283 279 277 278 273 273 272 271 271 272 273
236 244 264 289 308 323 334 340 343 344 345 344 344 344 341 338 333 326 326 327 327 320 313 310 307 305 303 300 301 297 296 295 292 286 281 280 282 281 279 278 276 276 275 276
228 240 262 293 320 336 343 345 347 349 350 351 352 352 352 350 346 341 340 341 342 340 333 325 322 323 315 307 304 301 300 299 300 297 291 289 288 285 285 284 280 278 279 280
214 224 252 296 329 346 351 350 352 355 357 358 360 0 1 2 3 1 2 2 1 359 355 343 336 335 331 325 318 317 314 310 307 305 301 295 293 291 288 285 284 284 284 284
Height
5805 5806 5806 5805 5804 5804 5803 5803 5802 5800 5799 5799 5799 5799 5799 5800 5801 5802 5804 5806 5809 5811 5813 5815 5817 5820 5821 5823 5824 5825 5826 5827 5828 5829 5829 5830 5830 5831 5831 5833 5834 5835 5836 5837
5802 5802 5801 5800 5800 5799 5798 5798 5797 5795 5794 5794 5793 5793 5794 5794 5795 5797 5798 5800 5802 5804 5806 5809 5811 5813 5815 5817 5818 5819 5820 5822 5822 5823 5823 5823 5824 5825 5826 5827 5827 5828 5829 5830
5799 5799 5797 5796 5796 5795 5794 5793 5792 5791 5789 5789 5789 5789 5789 5789 5790 5792 5793 5795 5796 5798 5800 5803 5805 5807 5809 5811 5812 5814 5815 5816 5817 5817 5817 5818 5818 5818 5819 5819 5820 5821 5822 5823
5795 5794 5794 5793 5792 5791 5790 5788 5787 5786 5786 5786 5786 5786 5785 5784 5785 5786 5787 5789 5791 5792 5794 5796 5798 5801 5803 5805 5806 5808 5809 5810 5810 5811 5812 5812 5812 5812 5812 5812 5813 5814 5814 5815
5792 5791 5790 5789 5788 5787 5786 5784 5783 5782 5782 5782 5781 5781 5782 5780 5781 5782 5782 5783 5785 5786 5788 5790 5792 5794 5796 5798 5800 5801 5802 5803 5803 5804 5805 5806 5806 5806 5805 5805 5804 5806 5807 5808
5789 5787 5786 5785 5784 5783 5781 5781 5780 5779 5779 5779 5778 5778 5778 5776 5776 5777 5777 5778 5780 5781 5782 5784 5785 5787 5789 5792 5793 5795 5795 5796 5797 5798 5799 5799 5799 5799 5798 5797 5797 5798 5799 5799
5786 5784 5783 5781 5780 5779 5778 5779 5779 5778 5777 5776 5774 5773 5774 5772 5772 5772 5773 5774 5775 5775 5776 5777 5779 5781 5783 5785 5786 5788 5789 5789 5790 5791 5791 5792 5792 5792 5792 5791 5791 5792 5792 5792
5784 5784 5780 5778 5777 5776 5775 5775 5776 5775 5775 5773 5770 5769 5769 5767 5767 5767 5768 5769 5770 5770 5770 5772 5773 5775 5777 5778 5780 5781 5782 5782 5783 5783 5784 5785 5785 5785 5785 5785 5785 5785 5785 5785
5781 5780 5777 5775 5773 5773 5772 5771 5771 5770 5769 5768 5767 5765 5764 5763 5763 5763 5763 5764 5764 5764 5765 5766 5768 5769 5771 5772 5773 5774 5774 5775 5776 5777 5777 5778 5778 5778 5778 5778 5778 5778 5778 5778
5776 5776 5774 5772 5770 5769 5769 5768 5767 5766 5766 5766 5765 5762 5761 5759 5758 5759 5759 5759 5759 5759 5760 5761 5762 5763 5764 5765 5766 5767 5768 5768 5769 5769 5770 5770 5770 5771 5771 5771 5771 5771 5771 5771
5773 5772 5771 5769 5768 5767 5766 5765 5764 5764 5763 5762 5761 5761 5757 5755 5755 5754 5754 5754 5754 5754 5754 5755 5755 5756 5757 5758 5759 5760 5761 5761 5762 5762 5762 5762 5763 5763 5763 5764 5764 5763 5764 5764
5770 5769 5768 5767 5765 5764 5763 5762 5762 5761 5760 5759 5758 5759 5753 5752 5751 5750 5750 5749 5749 5749 5749 5749 5749 5750 5751 5751 5752 5753 5753 5754 5754 5754 5755 5755 5756 5756 5756 5756 5756 5757 5757 5757
5768 5767 5766 5765 5765 5763 5761 5759 5758 5758 5756 5755 5755 5755 5750 5748 5747 5746 5745 5745 5745 5744 5744 5744 5744 5744 5744 5744 5745 5745 5746 5746 5746 5747 5747 5747 5748 5748 5749 5748 5749 5750 5750 5750
5765 5765 5765 5765 5762 5760 5759 5757 5756 5755 5754 5752 5751 5749 5747 5745 5744 5743 5742 5741 5740 5740 5739 5738 5738 5738 5738 5738 5738 5738 5739 5739 5739 5740 5740 5741 5741 5741 5742 5742 5742 5743 5743 5743
5763 5762 5761 5760 5759 5758 5756 5755 5753 5752 5751 5749 5748 5745 5744 5742 5740 5739 5738 5737 5736 5735 5734 5733 5733 5732 5732 5732 5732 5731 5732 5732 5733 5733 5734 5734 5735 5735 5735 5736 5736 5736 5736 5736
5760 5760 5759 5758 5757 5755 5754 5752 5751 5749 5747 5746 5744 5743 5740 5738 5736 5735 5734 5732 5731 5730 5729 5728 5727 5726 5726 5726 5726 5726 5726 5726 5726 5727 5727 5727 5728 5728 5729 5729 5729 5729 5729 5730
5758 5758 5758 5757 5755 5754 5753 5751 5748 5747 5745 5743 5741 5740 5736 5734 5733 5731 5729 5728 5727 5726 5725 5723 5722 5722 5721 5720 5720 5720 5720 5720 5720 5721 5721 5721 5721 5722 5722 5723 5723 5723 5723 5723
5757 5756 5756 5755 5754 5753 5753 5748 5746 5744 5742 5740 5737 5735 5733 5731 5729 5727 5726 5724 5723 5722 5720 5719 5718 5717 5716 5716 5715 5715 5715 5715 5715 5715 5715 5715 5715 5716 5716 5717 5717 5717 5717 5717
5755 5754 5754 5753 5752 5751 5749 5746 5744 5742 5740 5737 5735 5732 5730 5728 5726 5724 5722 5720 5719 5717 5716 5715 5714 5713 5712 5711 5711 5710 5709 5709 5709 5709 5710 5710 5710 5710 5710 5710 5710 5711 5711 5710
5753 5752 5752 5751 5750 5749 5748 5744 5741 5740 5737 5735 5732 5729 5727 5725 5723 5721 5718 5716 5715 5713 5712 5711 5710 5709 5708 5707 5706 5705 5705 5704 5704 5704 5704 5705 5705 5705 5705 5705 5705 5705 5704 5704
5751 5751 5750 5749 5748 5747 5745 5742 5740 5739 5736 5732 5729 5726 5724 5722 5720 5718 5715 5713 5711 5710 5709 5707 5706 5705 5704 5703 5702 5702 5701 5700 5700 5700 5700 5700 5700 5700 5700 5699 5699 5699 5699 5698
5749 5749 5748 5747 5746 5747 5742 5740 5738 5736 5732 5729 5727 5724 5721 5719 5716 5714 5712 5710 5708 5707 5706 5704 5703 5702 5701 5700 5699 5698 5697 5697 5696 5696 5696 5695 5695 5694 5694 5694 5693 5693 5693 5692
5747 5748 5747 5746 5746 5743 5740 5738 5736 5733 5730 5727 5725 5722 5719 5716 5714 5712 5709 5708 5706 5704 5703 5702 5700 5699 5698 5697 5696 5695 5694 5693 5693 5692 5692 5691 5691 5690 5690 5689 5689 5688 5688 5687
5746 5745 5745 5744 5742 5741 5739 5736 5734 5731 5729 5726 5723 5720 5717 5714 5712 5710 5708 5706 5704 5702 5701 5699 5698 5697 5696 5695 5694 5693 5692 5691 5690 5689 5689 5688 5687 5686 5686 5685 5685 5684 5684 5683
5744 5744 5743 5742 5741 5739 5737 5735 5733 5730 5727 5724 5721 5718 5715 5713 5710 5708 5706 5704 5702 5701 5699 5698 5697 5695 5694 5693 5692 5691 5690 5689 5688 5687 5686 5685 5684 5683 5683 5682 5682 5681 5680 5680
5742 5743 5742 5742 5740 5739 5737 5734 5732 5729 5726 5724 5721 5718 5715 5712 5709 5707 5705 5703 5701 5700 5698 5697 5695 5694 5692 5691 5690 5689 5688 5687 5686 5685 5684 5683 5682 5681 5680 5680 5679 5678 5678 5677